Regional Weather Roundup
Issued by NWS

Home | Current Version | Previous Version | Text Only | Print | Product List | Glossary On
Versions: 1 2 3 4 5 6 7 8 9 10 11 12 13 14 15 16 17 18 19 20 21 22 23 24 25 26 27 28 29 30 31 32 33 34 35 36 37 38 39 40 41 42 43 44 45 46 47 48 49 50
000
ASPQ40 PGUM 211312
RWRPQ
WEATHER ROUNDUP FOR THE MARIANAS AND MICRONESIA
NATIONAL WEATHER SERVICE TIYAN GU
1100 PM CHST THU AUG 21 2014

GUZ001>004-211400-
MARIANA ISLANDS-

CITY           SKY/WX    TMP DP  RH WIND       PRES   REMARKS
GUAM AIRPORT   CLEAR     81  75  83 CALM      29.87S
ANDERSEN AFB   MOCLDY    79  75  89 W2        29.87S
ROTA AIRPORT   NOT AVBL
TINIAN AP      NOT AVBL
SAIPAN AP      CLEAR     81  77  89 N3        29.85S

$$

PMZ161-211400-
REPUBLIC OF PALAU-

CITY           SKY/WX    TMP DP  RH WIND       PRES   REMARKS
KOROR AP       MOCLDY    82  82 100 CALM      29.88R HX  97
KOROR WSO      MOCLDY    82  77  83 W3        29.87R HX  91

$$

PMZ171>174-211400-
FEDERATED STATES OF MICRONESIA-

CITY           SKY/WX    TMP DP  RH WIND       PRES   REMARKS
YAP AIRPORT    CLOUDY    79  75  89 VRB2      29.86R
CHUUK AP       MOCLDY    75  75 100 VRB5      29.87R
POHNPEI AP     NOT AVBL
POHNPEI WSO    CLOUDY    77  75  94 SW3       29.89F
KOSRAE AP      NOT AVBL

$$

PMZ181-211400-
REPUBLIC OF THE MARSHALL ISLANDS-

CITY           SKY/WX    TMP DP  RH WIND       PRES   REMARKS
KWAJALEIN AP   CLEAR     82  73  74 CALM      29.88F
MAJURO AP      NOT AVBL
MAJURO WSO     MOCLDY    82  77  83 CALM      29.84F HX  91

$$



USA.gov is the U.S. government's official web portal to all federal, state and local government web resources and services.